Ataturk International Airport Istanbul TR
ICAO: LTBA
IATA: IST
Category: Large
Scheduled Services: Yes

Elevation: 163 ft
TransAlt. 10000 ft.

Airport Communications:
YESILKOY APP:120.5
ATIS:128.2
YESILKOY DELIVERY:121.7
YESILKOY GND:121.8
YESILKOY RAMP:121.9
YESILKOY TWR:118.1

LTBA Zoom In..

If you have problems with the map follow the link
https://www.worldairports.se/pages/airport.php?
ICAO=LTBA

Runways:

(A) RW 05 length 8465 ft width 197 ft
ILS 110.30 / hdg 55

(B) RW 17L length 9843 ft width 148 ft
ILS 111.10 / hdg 174

(C) RW 17R length 9843 ft width 148 ft
---- / hdg 174

(D) RW 23 length 8465 ft width 197 ft
ILS 111.90 / hdg 235

(E) RW 35L length 9843 ft width 148 ft
ILS 111.50 / hdg 354

(F) RW 35R length 9843 ft width 148 ft
ILS 111.30 / hdg 354

Location; LTBA
Day. 17 / Time. 01.50 Zulu
* QNH: 1013
* Temperature: 10° c. 50°f.
* Wind from: 350° Speed 10 kn.
Dewpoint: 09° c.
Visibility: 7000 m.
Clouds: Few 500 ft.
Clouds: Broken 8000 ft.
No significant changes expected in the near future.

LTBA 170150Z 35010KT 7000 FEW005 BKN080 10/09 Q1013 NOSIG


Wind From 350°
Speed 10 kn.

 
 
jpsmedia.com for Web Design worldairports.se 2018   terms of use